TimeCST,TemperatureF,Dew PointF,Humidity,Sea Level PressureIn,VisibilityMPH,Wind Direction,Wind SpeedMPH,Gust SpeedMPH,PrecipitationIn,Events,Conditions,WindDirDegrees,DateUTC
12:53 AM,62.1,55.9,80,29.96,6.0,South,10.4,18.4,N/A,,Haze,180,2013-02-22 06:53:00
1:18 AM,60.8,57.2,88,29.95,6.0,South,9.2,18.4,N/A,,Overcast,180,2013-02-22 07:18:00
1:53 AM,61.0,57.0,87,29.94,5.0,South,6.9,-,N/A,,Overcast,180,2013-02-22 07:53:00
2:53 AM,62.1,57.9,86,29.93,6.0,South,4.6,-,N/A,,Overcast,180,2013-02-22 08:53:00
3:36 AM,62.6,60.8,94,29.92,4.0,South,6.9,-,0.00,Rain,Light Rain,170,2013-02-22 09:36:00
3:53 AM,62.1,60.1,93,29.91,3.0,SSE,6.9,-,0.00,Rain,Light Rain,160,2013-02-22 09:53:00
4:09 AM,62.6,60.8,94,29.93,2.0,South,5.8,-,0.02,Rain,Light Rain,170,2013-02-22 10:09:00
4:14 AM,62.6,60.8,94,29.93,1.5,South,4.6,-,0.03,Rain,Rain,170,2013-02-22 10:14:00
4:22 AM,62.6,60.8,94,29.93,2.0,South,3.5,-,0.03,Rain,Light Rain,170,2013-02-22 10:22:00
4:29 AM,62.6,60.8,94,29.92,1.5,SE,6.9,-,0.07,Rain,Heavy Rain,140,2013-02-22 10:29:00
4:36 AM,62.6,60.8,94,29.92,2.0,SE,4.6,-,0.08,Rain,Light Rain,130,2013-02-22 10:36:00
4:51 AM,62.6,60.8,94,29.93,3.0,Variable,3.5,-,0.08,Rain,Light Rain,0,2013-02-22 10:51:00
4:53 AM,63.0,61.0,93,29.92,3.0,SE,4.6,-,0.08,Rain,Light Rain,130,2013-02-22 10:53:00
5:01 AM,62.6,60.8,94,29.93,2.0,Variable,4.6,-,0.01,Rain,Light Rain,0,2013-02-22 11:01:00
5:21 AM,62.6,60.8,94,29.95,1.8,North,18.4,23.0,0.03,Rain,Light Rain,350,2013-02-22 11:21:00
5:29 AM,60.8,59.0,94,29.94,2.5,NNE,12.7,-,0.04,Rain,Light Rain,30,2013-02-22 11:29:00
5:33 AM,60.8,59.0,94,29.95,4.0,NNW,12.7,-,0.04,Rain,Light Rain,340,2013-02-22 11:33:00
5:40 AM,62.6,59.0,88,29.96,6.0,NNE,8.1,-,0.05,Rain-Thunderstorm,Light Rain,30,2013-02-22 11:40:00
5:50 AM,60.8,59.0,94,29.97,1.8,North,8.1,-,0.11,Rain-Thunderstorm,Heavy Rain,10,2013-02-22 11:50:00
5:53 AM,61.0,59.0,93,29.97,1.5,NNE,4.6,-,0.13,Rain-Thunderstorm,Heavy Rain,20,2013-02-22 11:53:00
6:04 AM,60.8,59.0,94,29.96,1.5,NE,6.9,-,0.06,Rain-Thunderstorm,Heavy Rain,50,2013-02-22 12:04:00
6:13 AM,60.8,59.0,94,29.99,1.0,WNW,4.6,-,0.19,Rain-Thunderstorm,Heavy Rain,300,2013-02-22 12:13:00
6:15 AM,60.8,59.0,94,29.99,0.5,Calm,Calm,-,0.33,Fog-Rain-Thunderstorm,Heavy Rain,0,2013-02-22 12:15:00
6:27 AM,60.8,59.0,94,29.98,0.8,NE,4.6,-,0.55,Rain,Rain,50,2013-02-22 12:27:00
6:31 AM,60.8,59.0,94,29.98,1.2,ESE,6.9,-,0.56,Rain,Light Rain,110,2013-02-22 12:31:00
6:33 AM,60.8,57.2,88,29.98,1.8,ESE,6.9,-,0.56,Rain,Light Rain,110,2013-02-22 12:33:00
6:37 AM,60.8,59.0,94,29.98,2.0,East,5.8,-,0.57,Rain-Thunderstorm,Light Thunderstorms and Rain,80,2013-02-22 12:37:00
6:48 AM,59.0,57.2,94,29.97,4.0,ENE,8.1,-,0.57,Rain-Thunderstorm,Light Thunderstorms and Rain,60,2013-02-22 12:48:00
6:53 AM,59.0,57.9,96,29.96,4.0,East,8.1,-,0.57,Thunderstorm,Overcast,80,2013-02-22 12:53:00
7:01 AM,59.0,57.2,94,29.97,4.0,East,8.1,-,N/A,,Overcast,80,2013-02-22 13:01:00
7:53 AM,60.1,57.9,93,29.99,6.0,ENE,6.9,-,N/A,,Overcast,70,2013-02-22 13:53:00
8:53 AM,60.1,59.0,96,30.00,9.0,East,5.8,-,N/A,,Overcast,80,2013-02-22 14:53:00
9:53 AM,59.0,57.0,93,30.02,9.0,NNE,6.9,-,N/A,,Overcast,30,2013-02-22 15:53:00
10:22 AM,59.0,55.4,88,30.03,8.0,ENE,5.8,-,N/A,,Overcast,70,2013-02-22 16:22:00
10:53 AM,60.1,55.9,86,30.02,8.0,ENE,8.1,-,N/A,,Overcast,70,2013-02-22 16:53:00
11:51 AM,60.8,55.4,82,30.02,10.0,NE,6.9,-,N/A,,Overcast,40,2013-02-22 17:51:00
11:53 AM,61.0,57.0,87,30.01,10.0,NE,5.8,-,N/A,,Overcast,40,2013-02-22 17:53:00
12:53 PM,60.1,55.9,86,29.99,8.0,NE,8.1,-,N/A,,Overcast,50,2013-02-22 18:53:00
1:36 PM,59.0,55.4,88,29.98,2.0,NE,4.6,-,N/A,,Overcast,50,2013-02-22 19:36:00
1:49 PM,59.0,55.4,88,29.98,2.0,ENE,6.9,-,N/A,,Overcast,70,2013-02-22 19:49:00
1:53 PM,59.0,55.9,90,29.97,2.0,ENE,6.9,-,N/A,,Overcast,70,2013-02-22 19:53:00
2:24 PM,57.2,55.4,94,29.97,1.5,ENE,6.9,-,N/A,,Overcast,60,2013-02-22 20:24:00
2:37 PM,57.2,55.4,94,29.97,1.2,NE,8.1,-,N/A,,Overcast,50,2013-02-22 20:37:00
2:53 PM,57.0,55.0,93,29.96,1.2,ENE,6.9,-,N/A,,Overcast,70,2013-02-22 20:53:00
3:06 PM,57.2,55.4,94,29.97,1.5,ENE,9.2,-,N/A,,Overcast,70,2013-02-22 21:06:00
3:14 PM,57.2,55.4,94,29.97,1.0,East,8.1,-,N/A,,Overcast,90,2013-02-22 21:14:00
3:34 PM,57.2,55.4,94,29.98,0.8,NNE,5.8,-,N/A,,Overcast,30,2013-02-22 21:34:00
3:45 PM,55.4,55.4,100,29.96,1.2,East,6.9,-,N/A,,Overcast,80,2013-02-22 21:45:00
3:53 PM,55.9,55.0,97,29.97,1.2,East,3.5,-,N/A,,Overcast,100,2013-02-22 21:53:00
3:57 PM,55.4,55.4,100,29.98,0.8,ENE,5.8,-,N/A,,Overcast,60,2013-02-22 21:57:00
4:22 PM,55.4,55.4,100,29.97,1.2,ENE,5.8,-,0.00,,Overcast,70,2013-02-22 22:22:00
4:35 PM,55.4,55.4,100,29.97,0.8,ENE,6.9,-,0.00,,Overcast,60,2013-02-22 22:35:00
4:44 PM,55.4,53.6,94,29.98,0.5,ENE,4.6,-,0.00,Fog,Fog,60,2013-02-22 22:44:00
4:53 PM,55.9,54.0,93,29.97,0.5,ENE,5.8,-,0.00,Fog,Fog,60,2013-02-22 22:53:00
5:13 PM,55.4,53.6,94,29.99,1.0,NE,4.6,-,N/A,,Overcast,50,2013-02-22 23:13:00
5:25 PM,55.4,53.6,94,29.97,1.5,ENE,8.1,-,0.00,Rain,Light Rain,60,2013-02-22 23:25:00
5:30 PM,55.4,53.6,94,29.98,2.0,East,9.2,-,0.00,,Overcast,80,2013-02-22 23:30:00
5:43 PM,53.6,53.6,100,29.97,4.0,ENE,9.2,-,0.00,,Overcast,70,2013-02-22 23:43:00
5:53 PM,54.0,53.1,97,29.98,4.0,ENE,5.8,-,0.00,,Overcast,70,2013-02-22 23:53:00
6:22 PM,53.6,51.8,94,30.00,1.8,Variable,3.5,-,N/A,,Overcast,0,2013-02-23 00:22:00
6:24 PM,53.6,51.8,94,30.00,1.2,NNE,5.8,-,N/A,,Overcast,30,2013-02-23 00:24:00
6:34 PM,53.6,51.8,94,30.01,1.0,North,8.1,-,0.06,Rain,Heavy Rain,10,2013-02-23 00:34:00
6:46 PM,53.6,51.8,94,30.00,1.5,North,6.9,-,0.12,Rain,Rain,10,2013-02-23 00:46:00
6:53 PM,53.1,52.0,96,29.99,1.8,ENE,6.9,-,0.16,Rain,Heavy Rain,70,2013-02-23 00:53:00
7:03 PM,53.6,51.8,94,30.00,3.0,NE,5.8,-,0.01,Rain,Light Rain,40,2013-02-23 01:03:00
7:53 PM,52.0,51.1,97,29.96,6.0,East,8.1,-,0.01,Rain,Light Rain,80,2013-02-23 01:53:00
8:53 PM,52.0,50.0,93,29.97,10.0,East,6.9,-,0.00,,Overcast,80,2013-02-23 02:53:00
9:53 PM,52.0,50.0,93,29.95,8.0,East,8.1,-,0.01,Rain,Light Rain,80,2013-02-23 03:53:00
10:38 PM,51.8,50.0,94,29.95,1.8,NNE,5.8,-,0.05,Rain,Heavy Rain,30,2013-02-23 04:38:00
10:45 PM,51.8,50.0,94,29.94,3.0,NE,6.9,-,0.06,Rain,Light Rain,40,2013-02-23 04:45:00
10:53 PM,52.0,50.0,93,29.94,5.0,NNE,4.6,-,0.06,Rain,Light Rain,20,2013-02-23 04:53:00
11:35 PM,51.8,50.0,94,29.92,2.0,Calm,Calm,-,0.04,Rain,Light Rain,0,2013-02-23 05:35:00
11:53 PM,51.1,50.0,96,29.91,1.8,ENE,4.6,-,0.04,Rain,Light Rain,70,2013-02-23 05:53:00